Location: Holkham
(52.9500°N, 0.8167°E)
Time: 05:06:58
(UTC+00:00)

Cosmos 2221 - Pass Details

Date: 19 December 2025
Orbit: 569 x 589 km, 82.5° (Epoch: 24 January)

Event Time Altitude Azimuth Distance (km) Brightness Sun altitude
Exits shadow 04:43:06 30° 131° (SE) 1,030 4.0 -29.0°
Drops below altitude 10° 04:45:27 10° 150° (SSE) 1,874 5.4 -28.7°
Sets 04:47:41 0° 156° (SSE) 2,769 6.2 -28.3°
